FW5428 Weather Reports


Display with metric or nautical units.
time (UTC)temp
F
wind
direction
speed
MPH
gust
MPH
rain 1hr
in
rain 24hr
in
rain mn
in
humidity
%
barometer
mb
20260503032835 103 0 2.0 4.0 0.00 0.48 0.00 99 1026.0
20260503032326 66 0 2.0 4.0 0.00 0.48 0.00 99 1026.0
20260503031815 33 0 2.0 4.0 0.00 0.48 0.00 72 1026.3
20260503031305 32 0 2.0 4.0 0.00 0.48 0.00 99 1026.3
20260503030245 46 0 4.0 5.0 0.00 0.48 0.00 73 1026.3
20260503025735 46 0 2.0 4.0 0.00 0.48 0.00 74 1026.2
20260503025225 46 0 2.0 4.0 0.00 0.48 0.00 72 1026.3
20260503024715 46 0 3.0 4.0 0.00 0.48 0.00 74 1026.1
20260503024205 46 315 2.0 5.0 0.00 0.48 0.00 75 1026.2
20260503023655 46 0 2.0 5.0 0.00 0.48 0.00 76 1026.4
20260503023145 47 0 2.0 4.0 0.00 0.48 0.00 77 1026.2
20260503022124 48 270 0.0 3.0 0.00 0.48 0.00 74 1026.4
20260503021614 49 270 0.0 3.0 0.00 0.48 0.00 75 1026.3
20260503021104 49 270 2.0 3.0 0.00 0.48 0.00 76 1026.3
20260503020553 49 270 0.0 3.0 0.00 0.48 0.00 74 1026.2
20260503020044 50 270 0.0 3.0 0.00 0.48 0.00 74 1026.3
20260503015539 50 270 0.0 2.0 0.00 0.48 0.00 73 1026.1
20260503015023 50 270 0.0 4.0 0.00 0.48 0.00 75 1026.0
20260503014515 50 270 0.0 4.0 0.00 0.48 0.00 74 1026.1
20260503014003 50 315 0.0 4.0 0.00 0.48 0.00 74 1026.2
20260503013454 50 0 0.0 4.0 0.00 0.48 0.00 73 1026.0
20260503012433 51 0 0.0 3.0 0.00 0.48 0.00 71 1025.9
20260503011923 52 0 0.0 2.0 0.00 0.48 0.00 69 1025.9
20260503011413 52 270 0.0 4.0 0.00 0.48 0.00 69 1026.0
20260503010902 53 180 0.0 6.0 0.00 0.48 0.00 69 1026.0
20260503005842 54 270 0.0 4.0 0.00 0.48 0.00 70 1026.1
20260503005332 54 90 0.0 8.0 0.00 0.48 0.00 68 1026.1
20260503004822 55 180 3.0 8.0 0.00 0.48 0.00 67 1026.0
20260503004319 55 180 4.0 9.0 0.00 0.48 0.00 67 1026.2
20260503003802 55 180 6.0 11.0 0.00 0.48 0.00 66 1026.2
20260503003253 55 225 4.0 11.0 0.00 0.48 0.00 66 1026.1
20260503002742 55 180 4.0 11.0 0.00 0.48 0.00 66 1026.2
20260503002232 55 225 4.0 11.0 0.00 0.48 0.00 64 1026.1
20260503001722 55 180 3.0 11.0 0.00 0.48 0.00 61 1026.0
20260503001211 55 180 3.0 11.0 0.00 0.48 0.00 62 1026.0
20260503000702 55 180 3.0 12.0 0.00 0.48 0.00 62 1025.9
20260503000151 55 180 4.0 15.0 0.00 0.48 0.00 62 1025.8
20260502235131 55 180 6.0 14.0 0.00 0.48 0.00 63 1025.9
20260502234621 55 180 5.0 15.0 0.00 0.48 0.00 58 1025.7
20260502234110 56 180 6.0 15.0 0.00 0.48 0.00 60 1025.7
20260502233601 56 225 8.0 13.0 0.00 0.48 0.00 60 1026.0
20260502233051 56 180 4.0 11.0 0.00 0.48 0.00 59 1025.8
20260502232540 56 180 4.0 14.0 0.00 0.48 0.00 59 1026.0
20260502232031 56 225 3.0 14.0 0.00 0.48 0.00 62 1025.9
20260502231520 56 180 3.0 14.0 0.00 0.48 0.00 61 1025.7
20260502231010 56 180 4.0 15.0 0.00 0.48 0.00 57 1025.9
20260502230500 56 180 4.0 15.0 0.00 0.48 0.00 56 1025.8
20260502224930 57 180 8.0 15.0 0.00 0.48 0.00 57 1025.7
20260502224420 57 180 3.0 13.0 0.00 0.48 0.00 58 1025.6
20260502223909 57 270 7.0 13.0 0.00 0.48 0.00 57 1025.5
20260502222849 57 225 8.0 15.0 0.00 0.48 0.00 57 1025.7
20260502222339 57 225 5.0 12.0 0.00 0.48 0.00 58 1025.5
20260502221829 57 180 4.0 12.0 0.00 0.48 0.00 54 1025.3